Showing default

HULIANWANG DIGUI-15, 62975

Orbit data source: Space-Track

HULIANWANG DIGUI-15, 62975 is a payload satellite owned by Zhongguo Xingwang (CN) in LEO that was launched on Tue, 11 Feb 2025 UTC via a CHANG ZHENG 8A launch vehicle from the Wenchang Satellite Launch Center (WSC). Payload-class satellites include a variety of spacecraft equipped with specific instruments for various scientific and technological missions. These include communications satellites like Starlink; space stations such as the ISS; scientific satellites like the Hubble; Earth observation satellites from companies like Planet Labs, Umbra, and HawkEye 360; GPS; miniature CubeSats for education and research; and military/defense satellites.

Loading next visibility...
Identifier
62975, 2025-030E
Orbit
LEO
Country
Flag of CNCN / PRC
Related business
Manufacturer
CAST
Mission
Operational Civil Communications
Bus & Motor
XINGWANG C, Unknown motor
Mass
~700 kg wet, ~700 kg dry
Launch date (UTC)
2025-02-11 (1 year ago)
Launch vehicle
CHANG ZHENG 8A
Launch site
Wenchang Satellite Launch Center (WSC)
Object type
Payload
Rocket body
Debris
Shape & HBR
Box + 2 Pan, 2.1 m
Radar Cross Section
5.935 m², Large (>1 m²)

Expand to show TLE details & history
Last TLE update: 9 hours ago

TLE from 9 hours ago
0 HULIANWANG DIGUI-15
1 62975U 25030E   26128.22308600 -.00000086  00000-0  82562-4 0  9991
2 62975  50.0047  19.0859 0001135  37.2447 322.8504 13.29325773 60547
Epoch: 2026-05-08T05:21Z
TLE epoch observation values (Epoch: 2026-05-08T05:21:14.630Z)
Latitude
0.00001°
Longitude
72.71699°
Altitude
1,149.133 km
Speed
7.28 km/s
True Right ascension
01h 16m 20s
True Declination
0° 00' 00"
Sunlit
Object was in daylight at epoch
Visualization orbit readout
Latitude
Unknown
Longitude
Unknown
Altitude
Unknown
Speed
Unknown
Apparent Right ascension
Unknown
Apparent Declination
Unknown
Sunlit
N/A
Visualization observer readout
Local Sidereal Time
21:59:30
Azimuth
Unknown
Elevation
Unknown
Doppler factor
Unknown
Orbital elements
Apogee altitude
1,150.867 km
Perigee altitude
1,149.158 km
Semi-major axis
7,528.149 km
Eccentricity
0.00011
Inclination
50.0047°
RAAN
19.0859°
Arg. of periapsis
37.2447°
True anomaly
322.84254°
Mean anomaly
322.8504°
Eccentric anomaly
322.84647°
Mean motion
3.32285 °/min
Orbital period
108.34 mins
BSTAR
0.000082562
Loading maneuver chart data...
Computing Atmospheric mass density...
Loading historical data...
Loading historical data...
Loading historical data...
Loading historical data...
Loading historical data...
Loading historical data...
Loading historical data...

Documentation

Showing up to 5 results
|